Showing default

TRANSIT 5B-1, 670

Orbit data source: Space-Track

TRANSIT 5B-1, 670 is a payload satellite owned by USN BuWeps (US) in LEO that was launched on Sat, 28 Sep 1963 UTC via a THOR ABLESTAR launch vehicle from the Air Force Western Test Range (AFWTR). Payload-class satellites include a variety of spacecraft equipped with specific instruments for various scientific and technological missions. These include communications satellites like Starlink; space stations such as the ISS; scientific satellites like the Hubble; Earth observation satellites from companies like Planet Labs, Umbra, and HawkEye 360; GPS; miniature CubeSats for education and research; and military/defense satellites.

Loading next visibility...
Identifier
670, 1963-038B
Orbit
LEO
Country
Flag of USUS
Related business
Manufacturer
APL
Mission
Spacecraft
Bus & Motor
TRANSIT 5, Unknown motor
Mass
69 kg wet, 69 kg dry
Launch date (UTC)
1963-09-28 (63 years ago)
Launch vehicle
THOR ABLESTAR
Launch site
Air Force Western Test Range (AFWTR)
Object type
Payload
Rocket body
Debris
Shape & HBR
OCT CYL + ANT, 15.5 m
Radar Cross Section
Large (>1 m²)

Expand to show TLE details & history
Last TLE update: 22 hours ago

TLE from 22 hours ago
0 TRANSIT 5B-1
1 00670U 63038B   26207.36487955  .00000057  00000-0  82722-4 0  9994
2 00670  89.9669 332.7562 0039494 282.6665  77.0069 13.44686050 79455
Epoch: 2026-07-26T08:45Z
TLE epoch observation values (Epoch: 2026-07-26T08:45:25.593Z)
Latitude
0.00004°
Longitude
-102.6643°
Altitude
1,088.296 km
Speed
7.311 km/s
True Right ascension
22h 11m 01s
True Declination
0° 00' 00"
Sunlit
Object was in full shadow at epoch
Visualization orbit readout
Latitude
Unknown
Longitude
Unknown
Altitude
Unknown
Speed
Unknown
Apparent Right ascension
Unknown
Apparent Declination
Unknown
Sunlit
N/A
Visualization observer readout
Local Sidereal Time
20:28:18
Azimuth
Unknown
Elevation
Unknown
Doppler factor
Unknown
Orbital elements
Apogee altitude
1,118.422 km
Perigee altitude
1,059.441 km
Semi-major axis
7,467.069 km
Eccentricity
0.00395
Inclination
89.9669°
RAAN
332.7562°
Arg. of periapsis
282.6665°
True anomaly
77.44837°
Mean anomaly
77.0069°
Eccentric anomaly
77.22758°
Mean motion
3.36371 °/min
Orbital period
107.02 mins
BSTAR
0.000082722
Loading maneuver chart data...
Computing Atmospheric mass density...

Documentation

Showing up to 5 results
|